TimeCST,TemperatureF,Dew PointF,Humidity,Sea Level PressureIn,VisibilityMPH,Wind Direction,Wind SpeedMPH,Gust SpeedMPH,PrecipitationIn,Events,Conditions,WindDirDegrees,DateUTC
12:55 AM,34.7,25.0,68,30.27,10.0,North,18.4,25.3,N/A,,Scattered Clouds,350,2014-01-03 06:55:00
1:55 AM,33.1,23.7,68,30.29,10.0,North,13.8,-,N/A,,Scattered Clouds,350,2014-01-03 07:55:00
2:55 AM,31.1,21.6,68,30.31,10.0,North,13.8,23.0,N/A,,Partly Cloudy,360,2014-01-03 08:55:00
3:55 AM,29.7,19.8,67,30.33,10.0,North,16.1,-,N/A,,Partly Cloudy,10,2014-01-03 09:55:00
4:55 AM,28.8,19.6,69,30.34,10.0,North,11.5,-,N/A,,Scattered Clouds,360,2014-01-03 10:55:00
5:55 AM,28.4,18.5,66,30.36,10.0,North,17.3,21.9,N/A,,Scattered Clouds,10,2014-01-03 11:55:00
6:55 AM,27.9,17.1,64,30.40,10.0,North,15.0,-,N/A,,Mostly Cloudy,10,2014-01-03 12:55:00
7:55 AM,28.9,16.9,61,30.43,10.0,North,15.0,-,N/A,,Scattered Clouds,360,2014-01-03 13:55:00
8:55 AM,30.9,16.7,56,30.41,10.0,NNE,18.4,28.8,N/A,,Scattered Clouds,20,2014-01-03 14:55:00
9:55 AM,34.0,16.0,48,30.40,10.0,NNE,20.7,25.3,N/A,,Partly Cloudy,30,2014-01-03 15:55:00
10:56 AM,37.2,16.3,43,30.38,10.0,NNE,20.7,25.3,N/A,,Scattered Clouds,20,2014-01-03 16:56:00
11:55 AM,40.1,16.3,38,30.35,10.0,NNE,19.6,-,N/A,,Mostly Cloudy,20,2014-01-03 17:55:00
12:55 PM,42.3,15.8,34,30.32,10.0,NNE,18.4,25.3,N/A,,Mostly Cloudy,20,2014-01-03 18:55:00
1:55 PM,44.1,16.2,33,30.29,10.0,NNE,16.1,-,N/A,,Scattered Clouds,30,2014-01-03 19:55:00
2:56 PM,44.6,15.8,31,30.30,10.0,NNE,16.1,-,N/A,,Scattered Clouds,20,2014-01-03 20:56:00
3:55 PM,43.5,16.9,34,30.32,10.0,NNE,11.5,-,N/A,,Scattered Clouds,30,2014-01-03 21:55:00
4:55 PM,41.0,17.6,39,30.33,10.0,NNE,8.1,-,N/A,,Scattered Clouds,30,2014-01-03 22:55:00
5:55 PM,35.6,21.2,56,30.35,10.0,North,6.9,-,N/A,,Partly Cloudy,10,2014-01-03 23:55:00
6:55 PM,35.4,20.1,54,30.37,10.0,NNE,6.9,-,N/A,,Partly Cloudy,20,2014-01-04 00:55:00
7:55 PM,33.4,21.0,60,30.38,10.0,NE,6.9,-,N/A,,Partly Cloudy,40,2014-01-04 01:55:00
8:55 PM,33.6,20.5,59,30.38,10.0,ENE,5.8,-,N/A,,Clear,70,2014-01-04 02:55:00
9:55 PM,33.3,21.2,61,30.40,10.0,East,6.9,-,N/A,,Clear,90,2014-01-04 03:55:00
10:55 PM,35.2,21.0,56,30.38,10.0,East,9.2,-,N/A,,Clear,90,2014-01-04 04:55:00
11:55 PM,30.2,21.2,69,30.33,10.0,NE,6.9,-,N/A,,Partly Cloudy,50,2014-01-04 05:55:00